Mankato, MN

1:00 AM CST on December 07, 2019 (GMT -0600)
Mankato Regional

Weather History for KMKT - October, 2019

Change the Weather History Date:

Tuesday, October 1, 2019

  Actual Average Record
Temperature  
Mean Temperature 54 °F -  
Max Temperature 57 °F 62 °F 87 °F (2006)
Min Temperature 48 °F 42 °F 26 °F (2003)
Degree Days  
Heating Degree Days 12    
Growing Degree Days 4 (Base 50)    
Moisture  
Dew Point 52 °F    
Average Humidity 98    
Maximum Humidity 100    
Minimum Humidity 94    
Precipitation  
Precipitation 1.06 in - - ()
Sea Level Pressure  
Sea Level Pressure 29.98 in    
Wind  
Wind Speed 11 mph ()    
Max Wind Speed 20 mph    
Max Gust Speed 23 mph    
Visibility 9.0 miles    
Events Rain , Thunderstorm    
Averages and records for this station are not official NWS values.
T = Trace of Precipitation, MM = Missing Value Source: Averaged Metar Reports

Daily Weather History Graph

Daily Weather History Graph

Search for Another Location

Airport or City:

Astronomy

Oct. 01, 2019 Rise Set
Actual Time 7:13 AM CDT 6:56 PM CDT
Civil Twilight 6:44 AM CDT 7:25 PM CDT
Nautical Twilight 6:10 AM CDT 7:59 PM CDT
Astronomical Twilight 5:36 AM CDT 8:33 PM CDT
Moon 10:36 AM CDT (10/1) 9:03 PM CDT (10/1)
Length of Visible Light 12h 41m
Length of Day
11h 43m
Waxing Crescent, 12% of the Moon is Illuminated
Oct 1
Waxing Crescent
Oct 5
First Quarter
Oct 13
Full
Oct 21
Last Quarter
Oct 27
New

Hourly Weather History & Observations

Time (CDT) Temp. Dew Point Humidity Pressure Visibility Wind Dir Wind Speed Gust Speed Precip Events Conditions
12:03 AM 59.0 °F 57.2 °F 94% 29.89 in 10.0 mi NW 13.8 mph - N/A   Overcast
12:56 AM 57.9 °F 57.0 °F 97% 29.88 in 10.0 mi North 9.2 mph - 0.00 in   Overcast
1:56 AM 55.9 °F 55.9 °F 100% 29.93 in 5.0 mi West 6.9 mph - N/A   Overcast
2:39 AM 55.4 °F 55.4 °F 100% 29.96 in 2.0 mi WNW 17.3 mph - 0.00 in Rain Light Rain
2:52 AM 55.4 °F 55.4 °F 100% 29.97 in 4.0 mi WNW 16.1 mph 21.9 mph 0.00 in Rain Light Rain
2:56 AM 55.0 °F 55.0 °F 100% 29.96 in 6.0 mi WNW 11.5 mph 21.9 mph 0.00 in Rain Light Rain
3:56 AM 55.0 °F 55.0 °F 100% 29.95 in 10.0 mi NW 6.9 mph - 0.03 in Rain Rain
4:56 AM 54.0 °F 54.0 °F 100% 29.98 in 10.0 mi NW 10.4 mph - 0.04 in Rain Rain
5:56 AM 54.0 °F 54.0 °F 100% 29.97 in 10.0 mi NNW 19.6 mph - 0.07 in   Overcast
6:21 AM 53.6 °F 53.6 °F 100% 29.95 in 10.0 mi NNE 12.7 mph - 0.01 in Rain Rain
6:56 AM 54.0 °F 53.1 °F 97% 29.97 in 10.0 mi NNW 11.5 mph - 0.05 in Rain Light Rain
7:56 AM 53.1 °F 53.1 °F 100% 29.98 in 10.0 mi North 11.5 mph - 0.00 in Rain Light Rain
8:56 AM 54.0 °F 53.1 °F 97% 29.99 in 10.0 mi North 10.4 mph - 0.05 in   Overcast
9:56 AM 53.1 °F 53.1 °F 100% 30.01 in 10.0 mi NNE 8.1 mph - 0.01 in Rain Light Rain
10:11 AM 53.6 °F 53.6 °F 100% 30.01 in 10.0 mi North 13.8 mph - 0.00 in Rain , Thunderstorm Light Thunderstorms and Rain
10:32 AM 53.6 °F 53.6 °F 100% 30.02 in 8.0 mi North 13.8 mph - 0.12 in Rain , Thunderstorm Rain
10:53 AM 53.6 °F 53.6 °F 100% 30.00 in 10.0 mi North 16.1 mph 20.7 mph 0.15 in Rain Light Rain
10:56 AM 53.1 °F 53.1 °F 100% 30.01 in 10.0 mi North 15.0 mph 20.7 mph 0.16 in Rain Light Rain
11:56 AM 53.1 °F 52.0 °F 96% 30.03 in 10.0 mi North 13.8 mph - 0.02 in   Overcast
12:56 PM 53.1 °F 52.0 °F 96% 30.01 in 10.0 mi NNE 13.8 mph - 0.00 in   Overcast
1:56 PM 53.1 °F 53.1 °F 100% 30.01 in 10.0 mi NNE 11.5 mph 19.6 mph 0.06 in Rain Rain
2:56 PM 53.1 °F 52.0 °F 96% 30.00 in 10.0 mi NNE 12.7 mph - 0.11 in Rain Heavy Rain
3:56 PM 52.0 °F 51.1 °F 97% 30.01 in 10.0 mi North 17.3 mph 23.0 mph 0.24 in Rain Rain
4:56 PM 51.1 °F 51.1 °F 100% 29.99 in 10.0 mi NNE 16.1 mph - 0.13 in Rain Rain
5:18 PM 51.8 °F 51.8 °F 100% 29.97 in 10.0 mi NNE 11.5 mph - 0.01 in Rain Rain
5:56 PM 51.1 °F 51.1 °F 100% 30.00 in 10.0 mi NNE 12.7 mph - 0.03 in Rain Light Rain
6:56 PM 51.1 °F 51.1 °F 100% 30.00 in 10.0 mi NNE 13.8 mph - 0.03 in Rain Light Rain
7:56 PM 51.1 °F 50.0 °F 96% 29.96 in 10.0 mi NNE 11.5 mph - 0.01 in Rain Light Rain
8:56 PM 50.0 °F 50.0 °F 100% 30.01 in 4.0 mi NNE 12.7 mph - 0.01 in Rain Light Rain
9:56 PM 48.9 °F 48.9 °F 100% 30.03 in 6.0 mi North 13.8 mph - 0.01 in Rain Light Rain
10:56 PM 50.0 °F 48.9 °F 96% 30.01 in 10.0 mi NNE 15.0 mph 20.7 mph 0.00 in Rain Light Rain
11:28 PM 50.0 °F 48.2 °F 94% 29.99 in 10.0 mi NNE 13.8 mph - 0.00 in   Overcast
11:43 PM 50.0 °F 48.2 °F 94% 30.00 in 10.0 mi NNE 15.0 mph - 0.00 in   Overcast
11:51 PM 50.0 °F 48.2 °F 94% 30.00 in 10.0 mi NNE 11.5 mph - 0.00 in   Overcast
11:56 PM 50.0 °F 48.9 °F 96% 30.02 in 10.0 mi NNE 12.7 mph - 0.00 in   Overcast